DAL195 KATL-KMCI

Flight info

Callsign DAL195
Flight time N/A
Altitude 34000
Route CUTTN2 HANKO MEMFS LUKKY J41 ZAVEL KRTNY MHOMS3
Aircraft A21N/M-SDE3FGHIRWY/LB1

Departure

Time 2026-05-07 17:39
Airport Hartsfield Jackson Atlanta International Airport (KATL)

Arrival

Time N/A
Airport Kansas City International Airport (KMCI)
Time Latitude Longitude Altitude Speed Heading
2026-05-07 17:15 33.64265 -84.43859 1020 ft 0 kts 269°
2026-05-07 17:28 33.64265 -84.43853 1019 ft 2 kts 276°
2026-05-07 17:29 33.64263 -84.43835 1019 ft 2 kts 285°
2026-05-07 17:29 33.64257 -84.43819 1019 ft 2 kts 301°
2026-05-07 17:29 33.64248 -84.43804 1019 ft 2 kts 314°
2026-05-07 17:29 33.64237 -84.43792 1018 ft 2 kts 327°
2026-05-07 17:30 33.64224 -84.43784 1018 ft 2 kts 340°
2026-05-07 17:30 33.64210 -84.43778 1018 ft 1 kts 337°
2026-05-07 17:30 33.64208 -84.43777 1018 ft 0 kts 337°
2026-05-07 17:31 33.64227 -84.43778 1018 ft 6 kts 11°
2026-05-07 17:32 33.64265 -84.43755 1018 ft 6 kts 33°
2026-05-07 17:32 33.64308 -84.43726 1017 ft 7 kts 14°
2026-05-07 17:32 33.64361 -84.43722 1017 ft 7 kts
2026-05-07 17:32 33.64416 -84.43720 1017 ft 8 kts
2026-05-07 17:33 33.64455 -84.43677 1016 ft 9 kts 73°
2026-05-07 17:33 33.64461 -84.43593 1014 ft 11 kts 91°
2026-05-07 17:33 33.64460 -84.43471 1013 ft 17 kts 90°
2026-05-07 17:33 33.64462 -84.43304 1009 ft 23 kts 90°
2026-05-07 17:34 33.64462 -84.43105 1006 ft 23 kts 90°
2026-05-07 17:34 33.64462 -84.42911 1004 ft 23 kts 90°
2026-05-07 17:34 33.64465 -84.42744 1002 ft 18 kts 84°
2026-05-07 17:34 33.64471 -84.42584 997 ft 20 kts 90°
2026-05-07 17:35 33.64471 -84.42400 989 ft 23 kts 90°
2026-05-07 17:35 33.64499 -84.42203 981 ft 25 kts 61°
2026-05-07 17:35 33.64543 -84.41998 974 ft 26 kts 89°
2026-05-07 17:35 33.64543 -84.41780 971 ft 26 kts 90°
2026-05-07 17:36 33.64543 -84.41569 971 ft 24 kts 89°
2026-05-07 17:36 33.64544 -84.41377 974 ft 21 kts 90°
2026-05-07 17:36 33.64544 -84.41207 975 ft 19 kts 90°
2026-05-07 17:36 33.64545 -84.41052 978 ft 17 kts 90°
2026-05-07 17:37 33.64544 -84.40908 976 ft 17 kts 90°
2026-05-07 17:37 33.64568 -84.40768 977 ft 16 kts 77°
2026-05-07 17:37 33.64572 -84.40634 975 ft 14 kts 90°
2026-05-07 17:37 33.64635 -84.40568 976 ft 12 kts
2026-05-07 17:38 33.64679 -84.40605 979 ft 1 kts 267°
2026-05-07 17:38 33.64679 -84.40853 983 ft 65 kts 271°
2026-05-07 17:39 33.64677 -84.41684 974 ft 131 kts 271°
2026-05-07 17:39 33.64680 -84.42991 1022 ft 179 kts 272°
2026-05-07 17:39 33.64668 -84.44518 1561 ft 184 kts 271°
2026-05-07 17:39 33.64625 -84.46013 2305 ft 181 kts 275°
2026-05-07 17:40 33.64803 -84.47465 2862 ft 178 kts 285°
2026-05-07 17:40 33.65130 -84.48968 3160 ft 191 kts 288°
2026-05-07 17:40 33.65501 -84.50552 3466 ft 205 kts 287°
2026-05-07 17:40 33.65857 -84.52264 3773 ft 221 kts 286°
2026-05-07 17:41 33.66224 -84.54141 4137 ft 237 kts 285°
2026-05-07 17:41 33.66602 -84.56110 4569 ft 250 kts 285°
2026-05-07 17:41 33.66998 -84.58173 5159 ft 256 kts 285°
2026-05-07 17:41 33.67370 -84.60255 5903 ft 257 kts 283°
2026-05-07 17:42 33.67717 -84.62338 6594 ft 259 kts 283°
2026-05-07 17:42 33.68077 -84.64470 7292 ft 261 kts 283°
2026-05-07 17:42 33.68429 -84.66569 8118 ft 257 kts 282°
2026-05-07 17:42 33.68775 -84.68675 8839 ft 258 kts 282°
2026-05-07 17:43 33.69128 -84.70771 9486 ft 260 kts 282°
2026-05-07 17:43 33.69485 -84.72887 10168 ft 261 kts 281°
2026-05-07 17:43 33.69857 -84.75060 10554 ft 273 kts 282°
2026-05-07 17:43 33.70367 -84.77311 10824 ft 288 kts 286°
2026-05-07 17:44 33.71002 -84.79660 11129 ft 301 kts 287°
2026-05-07 17:44 33.71663 -84.82104 11391 ft 315 kts 286°
2026-05-07 17:44 33.72352 -84.84660 11636 ft 328 kts 286°
2026-05-07 17:44 33.73063 -84.87296 11901 ft 340 kts 286°
2026-05-07 17:45 33.73792 -84.90002 12387 ft 345 kts 286°
2026-05-07 17:45 33.74531 -84.92746 12977 ft 346 kts 286°
2026-05-07 17:45 33.75272 -84.95502 13536 ft 348 kts 286°
2026-05-07 17:45 33.76016 -84.98275 14069 ft 350 kts 286°
2026-05-07 17:46 33.76761 -85.01054 14580 ft 352 kts 286°
2026-05-07 17:46 33.77515 -85.03872 15069 ft 355 kts 286°
2026-05-07 17:46 33.78267 -85.06681 15544 ft 357 kts 287°
2026-05-07 17:46 33.79023 -85.09512 16008 ft 360 kts 287°
2026-05-07 17:47 33.79797 -85.12407 16461 ft 362 kts 287°
2026-05-07 17:47 33.80559 -85.15263 16900 ft 364 kts 287°
2026-05-07 17:47 33.81254 -85.18205 17328 ft 367 kts 283°
2026-05-07 17:47 33.81748 -85.21225 17737 ft 369 kts 279°
2026-05-07 17:48 33.82031 -85.24307 18142 ft 372 kts 275°
2026-05-07 17:48 33.82190 -85.27385 18555 ft 374 kts 274°
2026-05-07 17:48 33.82333 -85.30515 18953 ft 376 kts 274°
2026-05-07 17:48 33.82474 -85.33662 19345 ft 377 kts 274°
2026-05-07 17:49 33.82614 -85.36811 19711 ft 379 kts 274°
2026-05-07 17:49 33.82755 -85.39990 20085 ft 381 kts 274°
2026-05-07 17:49 33.82894 -85.43151 20437 ft 383 kts 274°
2026-05-07 17:49 33.83035 -85.46358 20781 ft 385 kts 274°
2026-05-07 17:50 33.83176 -85.49586 21122 ft 386 kts 274°
2026-05-07 17:50 33.83316 -85.52809 21458 ft 388 kts 274°
2026-05-07 17:50 33.83457 -85.56055 21787 ft 389 kts 274°
2026-05-07 17:50 33.83595 -85.59278 22096 ft 391 kts 275°
2026-05-07 17:51 33.83855 -85.62542 22396 ft 392 kts 279°
2026-05-07 17:51 33.84348 -85.65775 22701 ft 393 kts 283°
2026-05-07 17:51 33.85068 -85.68943 23001 ft 394 kts 288°
2026-05-07 17:51 33.85940 -85.72042 23294 ft 396 kts 289°
2026-05-07 17:52 33.86853 -85.75185 23585 ft 397 kts 289°
2026-05-07 17:52 33.87764 -85.78312 23899 ft 398 kts 289°
2026-05-07 17:52 33.88684 -85.81469 24186 ft 399 kts 289°
2026-05-07 17:52 33.89604 -85.84628 24443 ft 401 kts 289°
2026-05-07 17:53 33.90518 -85.87767 24697 ft 402 kts 289°
2026-05-07 17:53 33.91450 -85.90973 24963 ft 403 kts 289°
2026-05-07 17:53 33.92366 -85.94129 25214 ft 405 kts 289°
2026-05-07 17:53 33.93298 -85.97340 25462 ft 406 kts 289°
2026-05-07 17:54 33.94226 -86.00545 25692 ft 407 kts 289°
2026-05-07 17:54 33.95164 -86.03786 25934 ft 408 kts 289°
2026-05-07 17:54 33.96086 -86.06978 26160 ft 409 kts 289°
2026-05-07 17:54 33.97022 -86.10217 26459 ft 408 kts 289°
2026-05-07 17:55 33.97952 -86.13446 26798 ft 406 kts 289°
2026-05-07 17:55 33.98868 -86.16625 27119 ft 405 kts 289°
2026-05-07 17:55 33.99791 -86.19828 27412 ft 404 kts 289°
2026-05-07 17:55 34.00700 -86.22984 27701 ft 403 kts 289°
2026-05-07 17:56 34.01617 -86.26179 28003 ft 402 kts 289°
2026-05-07 17:56 34.02522 -86.29334 28311 ft 400 kts 289°
2026-05-07 17:56 34.03430 -86.32499 28619 ft 399 kts 289°
2026-05-07 17:56 34.04328 -86.35636 28917 ft 398 kts 289°
2026-05-07 17:57 34.05228 -86.38789 29208 ft 397 kts 289°
2026-05-07 17:57 34.06124 -86.41930 29478 ft 396 kts 289°
2026-05-07 17:57 34.07020 -86.45067 29759 ft 395 kts 289°
2026-05-07 17:57 34.07916 -86.48208 30062 ft 394 kts 289°
2026-05-07 17:58 34.08794 -86.51297 30352 ft 393 kts 289°
2026-05-07 17:58 34.09681 -86.54417 30642 ft 391 kts 289°
2026-05-07 17:58 34.10558 -86.57492 30927 ft 390 kts 289°
2026-05-07 17:58 34.11443 -86.60568 31207 ft 389 kts 289°
2026-05-07 17:59 34.12331 -86.63656 31481 ft 388 kts 289°
2026-05-07 17:59 34.13214 -86.66745 31750 ft 387 kts 289°
2026-05-07 17:59 34.14084 -86.69810 32036 ft 386 kts 289°
2026-05-07 17:59 34.14948 -86.72875 32315 ft 386 kts 289°
2026-05-07 18:00 34.15804 -86.75900 32535 ft 386 kts 289°
2026-05-07 18:00 34.16671 -86.78983 32729 ft 387 kts 289°
2026-05-07 18:00 34.17534 -86.82050 32931 ft 388 kts 289°
2026-05-07 18:00 34.18400 -86.85129 33127 ft 388 kts 289°
2026-05-07 18:01 34.19264 -86.88202 33321 ft 389 kts 289°
2026-05-07 18:01 34.20131 -86.91291 33505 ft 390 kts 289°
2026-05-07 18:01 34.21000 -86.94395 33706 ft 390 kts 289°
2026-05-07 18:01 34.21866 -86.97486 33898 ft 390 kts 289°
2026-05-07 18:02 34.23598 -87.03679 34052 ft 391 kts 289°
2026-05-07 18:02 34.24464 -87.06788 34059 ft 391 kts 289°
2026-05-07 18:03 34.26202 -87.13020 34062 ft 390 kts 289°
2026-05-07 18:03 34.27927 -87.19229 34061 ft 390 kts 289°
2026-05-07 18:04 34.29642 -87.25410 34062 ft 390 kts 289°
2026-05-07 18:04 34.31354 -87.31599 34060 ft 390 kts 289°
2026-05-07 18:05 34.33069 -87.37811 34059 ft 390 kts 289°
2026-05-07 18:05 34.34790 -87.44053 34061 ft 390 kts 289°
2026-05-07 18:06 34.36499 -87.50272 34060 ft 390 kts 289°
2026-05-07 18:06 34.38201 -87.56480 34060 ft 390 kts 289°
2026-05-07 18:07 34.39904 -87.62707 34062 ft 390 kts 289°
2026-05-07 18:07 34.41588 -87.68890 34063 ft 390 kts 288°
2026-05-07 18:08 34.43290 -87.75159 34062 ft 390 kts 288°